Location: Kerandraon
(48.1024°N, 4.4100°W)
Time: 13:44:43
(UTC+00:00)

Daily predictions for brighter satellites

Satellite Brightness Start Highest point End
(mag) Time Altitude Azimuth Time Altitude Azimuth Time Altitude Azimuth
Cosmos 2237 4.5 16:52:45 10° SW 16:58:29 74° WNW 17:04:16 10° NNE
CENTAUR R/B 3.8 16:54:03 10° NW 17:01:59 65° WSW 17:10:33 10° SSE
H-2A R/B 3.4 16:59:21 10° SE 17:02:37 30° ENE 17:05:52 10° N
IRS-1C Rocket 4.3 16:59:07 10° SE 17:04:12 51° ENE 17:09:18 10° N
YAOGAN 1 4.4 17:05:12 10° ENE 17:06:40 12° ENE 17:08:08 10° NE
USA 215 3.3 17:00:26 10° NE 17:07:01 88° NNW 17:13:34 10° WSW
COSMOS 2428 2.9 17:03:56 10° S 17:09:26 54° ESE 17:14:59 10° NE
PSLV R/B 4.2 17:07:43 10° NNE 17:11:47 49° E 17:15:47 10° S
CZ-4 R/B 3.0 17:10:02 10° E 17:11:54 13° ENE 17:13:45 10° NNE
Meteor 1-5 Rocket 4.3 17:07:23 10° N 17:12:52 53° ENE 17:18:08 10° SSE
Lacrosse 5 rocket 2.4 17:09:12 10° SSW 17:13:04 33° SE 17:16:37 11° ENE
Cosmos 1733 Rocket 3.3 17:13:56 10° N 17:18:10 47° ENE 17:22:24 10° SSE
Envisat 3.6 17:14:11 10° SE 17:18:42 33° ENE 17:23:14 10° N
SL-4 R/B 1.9 17:17:59 10° WSW 17:21:40 71° SSE 17:25:06 13° ENE
ISS -3.8 17:23:57 10° WNW 17:27:19 90° NE 17:30:41 10° ESE
Cosmos 2333 4.4 17:21:45 10° SSW 17:27:28 80° WNW 17:33:17 10° NNE
CZ-4B R/B 4.3 17:23:26 10° S 17:28:34 49° W 17:33:49 10° NNW
Cosmos 1782 3.9 17:27:14 10° SSW 17:31:06 47° WNW 17:34:58 10° N
Cosmos 1992 Rocket 4.1 17:26:07 10° NNW 17:31:14 52° ENE 17:36:19 10° SE
Cosmos 2322 4.1 17:27:17 10° SW 17:32:57 64° WNW 17:38:39 10° NNE
Cosmos 1666 3.7 17:31:56 10° NNE 17:35:05 25° ENE 17:38:12 10° SE
Cosmos 1346 Rocket 4.1 17:31:41 10° NNW 17:35:28 43° W 17:39:16 10° SSW
Cosmos 1900 4.5 17:31:45 10° NNW 17:36:32 50° NE 17:41:16 10° SE
Cosmos 1315 Rocket 3.6 17:33:39 10° SSW 17:37:32 53° WNW 17:41:32 10° N
CZ-4B R/B 4.0 17:35:07 10° NNW 17:37:48 21° WNW 17:40:27 10° WSW
Meteor 2-6 Rocket 4.1 17:34:00 10° S 17:39:23 89° W 17:44:50 10° NNE
Cosmos 2278 Rocket 2.1 17:34:39 10° NNW 17:40:21 75° ENE 17:46:00 10° SSE
COBE Rocket 3.8 17:37:26 10° NNE 17:42:04 64° E 17:46:42 10° S
USA 267 3.9 17:35:50 10° SE 17:42:16 58° SW 17:48:43 10° WNW
COSMOS 2455 4.4 17:37:47 10° W 17:42:48 27° NW 17:47:52 10° NNE
ATLAS 3B R/B 4.0 17:36:35 10° NW 17:42:52 44° WSW 17:49:17 10° S
SMAP 3.1 17:39:04 10° SSE 17:43:44 85° WSW 17:48:25 10° NNW
NOSS 3-4 (A) 3.9 17:40:34 10° WSW 17:46:33 59° NW 17:52:27 12° NE
NOSS 3-4 (C) 3.9 17:40:40 10° WSW 17:46:39 60° NW 17:52:34 12° NE
Cosmos 2360 Rocket 3.6 17:41:50 10° WSW 17:46:58 34° NW 17:52:08 10° NNE
NOSS 0 Rocket 4.1 17:42:21 10° S 17:48:24 57° ESE 17:53:49 13° NE
Cosmos 921 Rocket 4.1 17:45:31 10° N 17:48:55 23° ENE 17:49:41 22° ENE
Okean O Rocket 4.0 17:49:05 10° SSW 17:52:42 26° W 17:56:21 10° NW
Cosmos 2369 Rocket 3.7 17:50:44 10° N 17:54:07 16° NE 17:54:28 16° NE
Meteor 1-10 Rocket 4.3 17:49:18 10° SSW 17:54:50 77° WNW 18:00:28 10° N
SL-16 R/B 3.4 17:52:09 10° SSE 17:56:14 21° E 17:57:01 20° E
Cosmos 1862 Rocket 3.4 17:52:12 10° S 17:56:32 78° E 18:00:57 10° NNE
Cosmos 1092 Rocket 4.2 17:51:37 10° SSE 17:57:37 48° E 18:03:36 10° NNE
Cosmos 2242 Rocket 3.8 17:54:17 10° S 17:58:42 53° E 18:03:09 10° NNE
Cosmos 1703 Rocket 4.3 17:55:24 10° SSE 17:59:22 32° E 18:01:05 24° NE
Cosmos 2333 Rocket 2.6 17:55:19 10° SW 18:01:01 64° WNW 18:06:46 10° NNE
Ariane Rocket 4.5 18:03:29 18° NE 18:03:29 18° NE 18:05:44 10° NNE
Okean-O 2.6 18:02:31 10° SSE 18:06:57 87° WSW 18:11:25 10° NNW
Cosmos 1812 2.9 18:03:22 10° SSW 18:07:14 75° W 18:11:07 10° N
Cosmos 292 Rocket 3.8 18:02:36 10° NNW 18:07:26 58° ENE 18:12:13 10° SE
Cosmos 2237 Rocket 2.2 18:02:14 10° SSW 18:07:50 63° ESE 18:11:47 20° NE
BREEZE-M R/B 2.8 18:02:50 10° W 18:08:25 69° N 18:09:34 39° ENE
Meteor 1-11 Rocket 4.2 18:02:42 10° NNW 18:08:40 70° W 18:14:33 10° S
STARLINK-67 3.7 18:06:51 10° WNW 18:09:24 32° N 18:09:35 31° N
NOAA 12 4.2 18:06:34 10° S 18:11:53 78° WSW 18:17:12 10° NNW
RESURS DK-1 3.0 18:08:58 10° SW 18:13:00 53° WNW 18:15:52 18° NNE
Cosmos 2322 Rocket 4.5 18:09:41 10° WNW 18:13:03 16° NW 18:16:27 10° N
Meteor 1-27 Rocket 3.8 18:08:59 10° SSW 18:14:44 85° WNW 18:20:38 10° N
Shenzhou-11 Module 3.4 18:20:40 10° WSW 18:23:01 25° S 18:23:06 25° S
Cosmos 2219 Rocket 3.1 18:18:18 10° SW 18:23:40 46° NW 18:28:41 12° NNE
ATLAS 2AS CENTAUR R/B 4.0 18:17:27 10° W 18:24:57 41° NNW 18:30:48 16° NNE
STARLINK-46 3.4 18:24:03 10° W 18:26:14 45° WNW 18:26:14 45° WNW
S3M 4.5 18:21:17 10° N 18:26:55 34° ENE 18:27:13 34° ENE
SeaSat 1 3.7 18:28:08 24° NNE 18:28:08 24° NNE 18:31:05 10° N
Cosmos 1908 Rocket 3.6 18:25:55 10° NNW 18:30:21 79° W 18:34:43 10° S
COSMO-SKYMED 1 2.4 18:30:24 29° NNE 18:32:33 79° ESE 18:36:53 10° S
YAOGAN 6 2.7 18:29:20 10° S 18:32:50 73° WSW 18:36:26 10° NNW
Cosmos 1536 3.9 18:32:12 10° NNW 18:36:03 45° W 18:39:52 10° SSW
Nadezhda 4 Rocket 4.5 18:30:54 10° SSW 18:37:09 62° WNW 18:43:26 10° N
Exosat Rocket 4.1 18:32:55 10° SW 18:38:05 56° WNW 18:41:34 19° NNE
Cosmos 1980 3.8 18:32:46 10° SSW 18:38:24 76° WNW 18:41:51 25° NNE
Meteor 1-18 Rocket 4.4 18:34:18 10° SSE 18:39:46 48° E 18:40:29 45° ENE
Cosmos 2251 Rocket 4.1 18:34:39 10° SW 18:39:52 56° WNW 18:43:48 17° NNE
USA 116 4.4 18:37:20 30° NNE 18:39:55 63° E 18:45:03 10° S
Cosmos 1441 Rocket 3.0 18:36:10 10° N 18:40:02 87° E 18:43:49 10° S
Cosmos 1943 Rocket 3.2 18:35:28 10° NNW 18:39:24 29° NNE 18:39:24 29° NNE
Cosmos 1553 Rocket 4.1 18:35:08 10° N 18:41:22 55° ENE 18:47:38 10° SSE
Cosmos 2297 3.6 18:36:13 10° NNW 18:41:57 73° ENE 18:45:25 24° SE
YAOGAN 1 2.4 18:37:43 10° SSE 18:42:03 84° ENE 18:46:24 10° NNW
Cosmos 1428 Rocket 4.4 18:36:28 10° S 18:42:33 65° E 18:48:29 11° NNE
CSL-04 Rocket 3.5 18:40:48 10° SSE 18:46:05 87° ENE 18:51:25 10° NNW
CZ-4 R/B 1.5 18:42:33 10° S 18:46:27 67° WSW 18:50:19 10° NNW
USA 215 3.8 18:46:59 31° NE 18:49:43 47° NNW 18:55:54 10° W
Lacrosse 5 rocket 1.8 18:48:01 10° WSW 18:52:10 52° NNW 18:52:16 51° NNW
COSMOS 2428 4.2 18:48:59 10° WSW 18:54:00 31° NW 18:58:07 14° N
Okean 1-7 3.0 18:51:27 10° S 18:55:47 82° W 18:56:06 75° NNW
Envisat 4.5 18:52:59 10° SSW 18:57:40 37° W 19:02:23 10° NNW
Cosmos 614 Rocket 4.1 18:53:22 10° S 18:57:41 55° SSE 18:57:41 55° SSE
Cosmos 2026 Rocket 3.9 18:53:29 10° S 18:59:33 86° W 19:05:40 10° N
CSL-04 Debris 4.3 18:54:23 10° S 18:59:50 73° WSW 19:05:18 10° NNW
Aureole 1 Rocket 4.5 18:57:57 10° SW 18:59:04 21° SW 18:59:04 21° SW
SL-4 R/B 2.8 18:57:39 10° W 19:00:43 45° NW 19:00:43 45° NW
Cosmos 489 Rocket 4.4 18:55:35 10° NNW 19:01:55 64° ENE 19:02:47 58° ESE
ISS -1.4 19:01:13 10° W 19:03:43 19° SW 19:04:01 19° SSW
Genesis I 4.3 19:01:29 10° NW 19:04:08 40° NW 19:04:08 40° NW
Cosmos 407 Rocket 3.6 19:03:35 10° SSW 19:07:53 60° SSE 19:07:53 60° SSE
Cosmos 1867 3.8 19:06:04 10° NW 19:10:44 58° N 19:10:44 58° N
Cosmos 1417 Rocket 4.3 19:06:09 10° N 19:12:20 85° E 19:18:28 10° S
Meteor 2-9 Rocket 4.3 19:07:23 10° N 19:12:27 63° NNE 19:12:27 63° NNE
NOAA 11 4.5 19:15:03 10° S 19:20:27 66° WSW 19:25:55 10° NNW
Cosmos 1655 Rocket 4.3 19:16:11 10° S 19:20:56 52° SSE 19:20:56 52° SSE
NOSS 3-1 (C) 4.2 19:20:10 10° NW 19:26:44 50° NNE 19:26:44 50° NNE
Cosmos 921 Rocket 4.3 19:23:21 10° NNW 19:26:36 37° WNW 19:26:36 37° WNW
USA 229 DEB 4.2 19:27:47 10° NW 19:33:49 50° NNE 19:33:49 50° NNE
USA 229 4.2 19:27:54 10° NW 19:33:54 50° NNE 19:33:54 50° NNE
Cosmos 2369 Rocket 3.6 19:33:43 10° NNW 19:36:16 27° NNW 19:36:16 27° NNW
SL-16 R/B 2.6 19:34:07 10° SW 19:38:57 61° WSW 19:38:57 61° WSW
Cosmos 2333 Rocket 4.5 19:42:52 10° WNW 19:46:29 17° NW 19:48:46 14° N
Cosmos 2237 Rocket 3.8 19:47:29 10° WSW 19:52:20 28° NW 19:53:38 26° NNW
Cosmos 2344 4.2 19:49:27 10° NW 19:58:47 70° NE 19:59:36 68° ENE
ATLAS 2AS CENTAUR R/B 4.4 20:11:44 10° WNW 20:18:11 26° N 20:18:14 26° N
Cosmos 1943 Rocket 4.2 20:19:01 10° NW 20:20:57 22° NW 20:20:57 22° NW
